Theta_e
304 303 300 301 300 295 294 292 294 291 281 283 282 285 285 285 286 286 286 289 292 293 293 293 293 293 293 294 294 294 294 295 295 295 294 294 293 293
304 302 301 300 300 294 292 291 293 295 292 286 283 283 284 284 285 285 285 286 290 291 293 292 291 292 292 293 293 293 293 293 293 293 292 291 292 292
303 300 299 299 298 293 292 291 290 292 291 282 283 283 283 283 283 285 285 284 284 289 290 291 291 291 291 292 292 291 291 291 291 290 289 290 290 289
300 299 298 298 296 294 292 290 290 291 291 281 280 281 282 283 283 283 283 283 282 286 289 290 290 290 291 291 290 289 289 288 287 287 287 287 287 286
300 298 298 297 295 295 293 291 290 288 288 283 279 281 281 282 281 282 281 281 282 284 287 289 289 290 290 289 288 287 285 285 285 285 285 284 284 284
298 298 297 296 295 294 290 289 286 284 285 284 281 280 280 280 281 279 278 280 279 281 284 284 285 287 287 287 286 284 283 284 284 283 282 281 282 282
294 294 294 294 292 293 289 287 285 285 284 284 280 279 278 278 278 279 279 279 279 280 280 280 281 281 281 283 282 282 283 283 281 280 280 280 280 281
291 290 290 287 289 291 291 290 287 286 284 283 281 280 279 279 280 279 278 278 276 280 279 278 279 279 279 279 282 282 281 280 278 278 279 279 279 280
289 289 286 285 285 287 290 290 289 290 290 285 281 280 279 280 280 279 280 280 279 278 278 276 278 277 279 279 282 280 278 277 277 277 278 278 278 278
287 287 286 284 284 285 285 285 285 286 287 285 283 284 283 282 282 283 281 280 279 278 279 275 276 276 277 275 278 278 275 275 275 276 276 277 277 277
285 285 285 283 285 287 284 284 283 283 287 287 286 287 287 286 284 281 279 278 275 276 278 276 273 273 272 271 273 276 273 273 274 275 275 275 276 276
283 283 283 284 285 287 284 283 281 281 282 283 284 286 286 285 286 284 280 277 275 273 276 275 271 270 267 269 270 269 269 270 272 273 273 274 274 271
281 281 282 286 286 288 287 283 282 283 284 282 282 282 282 283 283 282 281 280 276 275 275 273 269 267 263 265 267 268 268 267 267 268 270 271 273 273
280 281 282 285 287 288 286 286 286 284 282 281 280 280 280 281 281 280 280 279 279 278 276 272 268 267 264 262 264 266 266 266 266 266 266 269 271 271
282 282 283 285 287 287 287 287 285 282 280 279 279 279 280 280 278 276 275 274 273 275 274 271 269 267 265 263 262 263 264 264 266 265 265 266 266 266
282 281 283 284 285 286 284 285 282 282 281 280 279 279 278 277 275 274 272 271 270 268 271 270 269 268 264 264 263 260 263 260 264 264 265 265 266 266
278 278 279 282 282 282 283 283 282 280 280 279 278 276 276 275 274 273 271 269 269 266 265 266 268 267 265 264 257 261 262 262 263 263 264 262 264 265
276 275 274 279 281 281 280 281 281 281 280 280 278 276 275 274 272 271 269 269 268 266 265 264 264 260 258 259 266 261 260 261 262 263 262 259 260 264
276 276 276 277 278 278 278 278 278 278 277 277 275 275 274 273 271 269 268 267 266 265 264 263 261 258 250 252 258 267 260 260 261 260 261 260 260 263
278 278 278 278 278 277 277 276 275 273 273 274 273 273 272 270 268 268 267 265 265 264 261 261 259 260 256 254 252 259 267 261 258 259 260 262 264 268
277 276 276 276 276 276 275 274 273 271 270 270 269 267 267 266 265 266 266 265 264 262 260 260 262 264 259 254 251 252 258 265 265 262 262 260 259 260
270 270 269 268 268 268 268 267 267 266 265 265 264 263 264 265 264 263 263 263 261 261 261 261 260 258 254 256 252 253 256 259 261 264 266 265 258 256
265 264 264 263 262 262 262 261 260 260 259 260 261 261 261 260 261 264 263 261 259 257 256 256 258 258 256 256 253 253 252 254 256 256 258 264 267 269
Wind_Speed
15 16 14 12 11 9 9 9 11 9 9 9 6 13 11 11 14 12 11 17 19 17 17 14 11 8 9 13 9 9 11 13 15 17 19 20 22 23
10 14 14 11 11 8 10 10 10 13 10 8 10 6 14 12 14 13 11 16 19 17 16 13 10 10 11 12 10 11 11 13 14 17 18 19 21 25
13 13 15 14 11 9 9 9 10 9 12 1 2 4 13 14 11 11 9 8 8 16 14 13 13 12 12 12 10 10 11 12 14 15 16 19 22 23
13 13 15 10 14 12 10 13 12 12 10 6 3 3 4 10 9 11 10 10 8 12 14 15 13 13 13 12 10 9 10 10 13 13 16 18 20 22
14 14 15 14 14 12 12 11 9 7 9 4 4 2 2 6 6 8 10 7 6 12 14 15 16 11 14 10 9 8 7 10 11 14 15 16 18 20
13 13 13 15 15 14 11 11 9 9 9 8 5 5 3 5 8 10 7 3 6 5 9 9 7 9 10 10 7 5 7 9 11 11 14 15 16 19
11 11 11 13 15 14 9 10 11 10 9 9 5 3 5 6 12 8 7 5 3 2 4 4 2 2 3 5 4 4 7 9 8 10 11 14 17 18
11 9 8 8 11 17 21 20 19 15 14 10 8 9 9 9 9 8 6 5 4 6 4 2 3 4 3 2 6 7 7 4 6 8 11 14 16 18
10 8 6 5 8 8 17 20 21 24 21 14 12 10 12 12 11 10 8 9 6 4 4 3 3 4 3 3 7 6 3 2 6 9 12 13 16 18
8 9 9 8 10 11 10 10 10 10 11 7 11 11 9 10 13 10 10 6 5 4 4 3 3 3 2 2 4 7 3 2 6 9 11 13 16 18
6 7 8 7 12 19 11 11 9 6 8 10 9 13 16 19 12 9 7 7 3 3 6 3 3 2 1 1 2 8 2 2 7 10 10 13 15 18
4 5 11 9 16 20 11 10 10 9 10 8 8 11 12 14 19 9 9 8 3 2 4 5 3 3 2 1 3 2 0 3 9 10 10 13 15 6
4 3 3 15 15 19 16 10 12 12 13 8 7 6 7 7 7 5 8 7 5 2 5 4 3 3 1 1 1 2 3 1 2 5 9 12 14 13
4 2 3 13 15 15 12 14 17 14 7 7 7 6 6 5 4 5 6 5 3 4 10 6 4 4 3 2 3 2 2 2 2 3 4 8 12 14
3 4 9 12 13 11 15 16 12 7 7 6 6 5 6 5 6 5 6 8 6 5 7 4 5 4 3 2 2 2 1 1 2 4 3 5 6 6
4 2 5 6 5 5 9 9 6 6 6 6 4 3 4 5 4 4 3 4 3 3 3 4 5 6 3 2 3 2 3 2 1 3 5 5 6 6
3 2 1 1 3 4 5 5 5 5 5 3 3 5 5 5 3 4 3 3 3 5 4 2 4 3 2 4 2 4 4 3 4 5 4 5 6 6
3 2 2 2 4 4 5 4 3 5 4 5 5 5 5 5 5 3 2 3 5 4 4 3 3 2 3 4 10 3 1 3 3 3 3 3 6 5
2 2 2 3 3 3 3 3 2 1 2 3 3 3 3 3 5 4 4 3 2 3 3 3 3 3 3 3 3 5 4 2 1 2 3 4 7 9
2 2 2 2 2 1 2 1 2 2 2 2 2 3 3 3 3 4 4 3 3 2 2 2 2 4 5 5 3 2 3 1 1 4 5 6 9 19
4 5 5 4 3 3 3 3 3 2 2 1 1 2 2 3 2 3 3 5 5 3 4 4 5 5 4 3 3 3 3 6 7 5 5 6 6 4
5 6 5 5 4 4 3 3 3 3 2 2 2 2 2 2 2 3 4 3 3 3 2 3 4 4 2 4 3 2 2 3 6 16 18 15 5 5
5 5 4 4 4 4 3 4 3 2 2 2 2 2 3 2 2 2 3 3 3 3 2 2 2 1 1 2 3 2 2 4 2 7 6 12 15 17
Wind_Direction
227 227 220 229 227 214 215 204 217 232 224 208 193 202 199 196 205 196 202 211 215 217 217 221 233 240 255 260 275 290 302 312 318 321 328 328 325 323
226 226 226 225 228 218 216 214 216 232 255 182 201 174 190 191 197 191 201 198 213 216 217 220 235 244 255 262 273 287 301 308 316 323 325 324 324 332
225 221 225 223 224 208 212 216 222 220 238 72 196 165 189 193 179 183 188 197 209 211 212 218 233 243 257 261 275 293 297 308 323 320 320 324 331 336
232 226 229 222 223 215 208 209 213 215 219 175 156 151 169 181 173 180 189 199 183 198 207 220 233 244 255 260 281 290 308 324 315 313 324 330 335 332
232 229 231 227 228 222 212 214 209 196 201 159 146 147 106 174 170 187 191 170 179 192 205 221 234 244 253 269 276 298 323 311 304 321 328 337 330 331
236 234 230 227 226 224 210 208 189 181 185 183 159 151 155 161 179 177 178 165 175 172 205 217 223 247 256 253 277 304 302 294 318 328 336 329 328 329
234 235 235 233 224 218 197 198 188 193 189 188 167 147 158 156 182 177 174 153 183 144 193 202 161 220 235 263 278 273 276 309 323 333 328 327 329 326
238 231 228 225 222 220 210 206 195 192 193 189 175 178 170 166 166 179 136 151 182 190 170 175 166 212 206 211 228 251 286 300 328 329 328 328 326 325
235 237 221 211 206 212 221 217 216 214 203 181 174 174 171 173 165 159 172 182 190 143 125 179 174 235 208 213 221 261 204 324 336 335 332 329 324 322
228 217 217 198 195 192 198 202 204 209 197 174 165 163 172 168 180 176 174 143 95 133 140 171 162 207 169 151 240 197 163 19 344 340 332 326 321 325
229 210 206 203 204 200 192 189 179 169 161 149 156 159 160 157 152 134 154 156 158 167 178 146 166 151 185 192 244 166 172 337 354 349 320 319 327 329
212 221 206 197 202 205 196 183 174 160 146 147 151 157 152 162 165 178 158 173 136 146 174 163 140 147 225 207 199 193 234 282 1 332 312 321 328 326
214 208 201 221 215 213 199 187 175 151 155 143 133 129 137 154 159 163 169 170 160 131 177 127 151 153 101 191 243 212 214 238 346 304 308 320 319 324
193 184 190 223 223 223 177 177 163 151 138 134 139 146 155 175 168 160 158 131 141 138 165 148 148 154 148 191 225 194 224 236 249 263 280 300 308 317
166 193 226 230 234 213 173 179 166 146 140 147 160 162 178 160 130 111 91 93 85 104 136 135 134 137 148 184 193 216 290 264 254 268 286 294 291 303
205 225 241 238 204 162 158 166 131 138 153 158 161 128 121 142 161 148 130 139 116 103 94 123 129 136 157 205 186 212 191 237 175 268 274 280 293 287
81 34 359 111 140 133 127 128 126 126 128 127 142 155 168 166 159 149 121 139 155 154 158 134 109 97 124 164 208 232 237 232 244 257 277 287 291 285
43 36 24 49 111 111 116 119 119 144 159 169 171 172 173 166 152 145 122 165 173 157 142 147 139 84 10 294 219 226 213 242 240 261 298 292 291 285
60 56 66 62 70 90 111 114 137 128 125 153 142 151 138 155 152 161 161 145 144 138 132 134 140 130 116 221 290 242 190 207 240 272 269 251 282 290
94 94 85 92 92 102 109 102 92 86 75 83 103 134 153 145 143 162 170 157 132 124 136 146 158 176 171 202 198 270 177 156 207 274 290 280 278 289
39 46 29 34 36 44 47 59 55 61 69 99 103 110 121 115 102 124 139 148 140 149 182 194 211 144 110 71 21 301 281 280 275 273 290 297 295 275
42 51 40 42 40 43 44 53 66 58 68 93 84 103 120 124 130 131 145 156 177 152 123 110 116 119 116 174 218 229 289 292 296 294 283 265 242 284
40 41 38 43 35 37 51 61 62 66 81 96 113 115 125 118 108 148 147 140 127 118 118 121 130 109 172 189 191 233 268 288 294 306 288 279 270 271